Showing default

TUSUR GO, 61782

Orbit data source: Space-Track

TUSUR GO, 61782 is a Commonwealth of Independent States-origin payload satellite in SSO that was launched on Mon, 04 Nov 2024 UTC via a SOYUZ-2-1B launch vehicle from the Vostochny Cosmodrome (VOSTO). Payload-class satellites include a variety of spacecraft equipped with specific instruments for various scientific and technological missions. These include communications satellites like Starlink; space stations such as the ISS; scientific satellites like the Hubble; Earth observation satellites from companies like Planet Labs, Umbra, and HawkEye 360; GPS; miniature CubeSats for education and research; and military/defense satellites.

Loading next visibility...
Identifier
61782, 2024-199AZ
Orbit
SSO
Country
Flag of CISCIS
Related business
Manufacturer
Geoskan
Mission
Operational Amateur Technology
Bus & Motor
CUBESAT 3U, Unknown motor
Mass
5 kg wet, 5 kg dry
Launch date (UTC)
2024-11-04 (1 year ago)
Launch vehicle
SOYUZ-2-1B
Launch site
Vostochny Cosmodrome (VOSTO)
Object type
Payload
Rocket body
Debris
Shape & HBR
Box, 0.1 m
Radar Cross Section
0.035 m², Small (<0.1 m²)

Expand to show TLE details & history
Last TLE update: 14 hours ago

TLE from 14 hours ago
0 TUSUR GO
1 61782U 24199AZ  25301.67367395  .00055833  00000-0  11155-2 0  9995
2 61782  97.3257 171.1343 0013232  49.7624 310.4781 15.46538553 98682
Epoch: 2025-10-28T16:10Z
TLE epoch observation values (Epoch: 2025-10-28T16:10:05.429Z)
Latitude
-0°
Longitude
-108.6461°
Altitude
424.15 km
Speed
7.66 km/s
True Right ascension
11h 24m 32s
True Declination
0° 00' 00"
Sunlit
Object was in daylight at epoch
Visualization orbit readout
Latitude
Unknown
Longitude
Unknown
Altitude
Unknown
Speed
Unknown
Apparent Right ascension
Unknown
Apparent Declination
Unknown
Sunlit
N/A
Visualization observer readout
Local Sidereal Time
01:52:34
Azimuth
Unknown
Elevation
Unknown
Doppler factor
Unknown
Orbital elements
Apogee altitude
432.788 km
Perigee altitude
414.788 km
Semi-major axis
6,801.925 km
Eccentricity
0.00132
Inclination
97.3257°
RAAN
171.1343°
Arg. of periapsis
49.7624°
True anomaly
310.36264°
Mean anomaly
310.4781°
Eccentric anomaly
310.42038°
Mean motion
3.86897 °/min
Orbital period
93.05 mins
BSTAR
0.0011155
Loading maneuver chart data...
Computing Atmospheric mass density...
Loading historical data...
Loading historical data...
Loading historical data...
Loading historical data...
Loading historical data...
Loading historical data...
Loading historical data...

Documentation

Showing up to 5 results
|